www.pogodaiklimat.ru

Погода и климат >> Архив погоды >> Венгрия >> Debrecen


ПОГОДА в Debrecen

  • Прогноз погоды в Debrecen
  • Монитор погоды в Debrecen
  • Климат города

АРХИВ ПОГОДЫ в Debrecen

Время (UTC), дата Ветер
(напр.,м/с)
 
Видим.   Явления Облачность Т
(С)
Тd
(С)
f
(%)
Тe
(С)
Тes
(С)
Комфортность P
(гПа)
Po
(гПа)
Тmin
(С)
Tmax
(С)
R
(мм)
R24
(мм)
S
(см)
07 11.08 Ю 2 20 км 9/4 1500 м
[Sc Ac cast]
+23.9 +13.7 53 +26 +28 жарко 1021.5 1008.9
08 11.08 ЮЗ 1 20 км 9/1 1500 м
[Cu med, cong Ac As Ci sp]
+25.8 +14.0 48 +28 +34 жарко 1021.0 1008.5
09 11.08 Ю 2 25 км 6/1 1500 м
[Cu hum Ac cast Ci sp]
+26.7 +14.8 48 +29 +38 жарко 1020.6 1008.1
10 11.08 ЮВ 2 25 км 8/1 1500 м
[Cu hum Ac cast Ci sp]
+27.7 +14.7 45 +30 +39 жарко 1020.0 1007.6
11 11.08 СЗ 1 20 км 8/4 1500 м
[Cu Sc Ac cast Ci sp]
+28.7 +14.2 41 +31 +38 жарко 1019.6 1007.2
12 11.08 СЗ 2 20 км 9/4 1500 м
[Cu med, cong Ac As Ci sp]
+29.3 +13.5 38 +31 +36 жарко 1019.1 1006.8
13 11.08 В 1 20 км 9/3 1500 м
[Cu med, cong Ac cast Ci sp]
+29.8 +14.4 39 +32 +37 душно 1018.5 1006.2
14 11.08 З 4
{7}
20 км 8/1 1500 м
[Cu med, cong Ci sp]
+30.3 +14.0 37 +32 +36 жарко 1018.1 1005.8
15 11.08 З 4 20 км 8/1 1500 м
[Cu med, cong Ac cast Ci sp]
+29.1 +12.9 37 +30 +32 жарко 1018.0 1005.7
16 11.08 З 4 20 км 8/1 1500 м
[Cu med, cong Ac cast Ci sp]
+29.0 +12.4 36 +30 +31 жарко 1017.7 1005.4
17 11.08 СЗ 2 20 км 9/1 1500 м
[Sc diur, vesp Ac As Ci sp]
+27.9 +14.2 43 +30 +30 жарко 1017.7 1005.3
18 11.08 СЗ 1 20 км 8/0
[Ac As Ci sp]
+27.0 +14.7 47 +30 +30 душно 1017.8 1005.4 +30.5
19 11.08 СЗ 1 20 км 9/0
[Ac As]
+26.2 +14.7 49 +29 +29 жарко 1018.4 1005.9
20 11.08 СЗ 1 20 км 9/0
[Ac As]
+25.0 +15.6 56 +28 +28 жарко 1018.4 1005.9
21 11.08 СЗ 1 20 км 8/0
[Ac As Ci sp]
+24.5 +15.7 58 +28 +28 душно 1018.5 1006.0
22 11.08 штиль 0 20 км 9/0
[Ac As]
+22.8 +15.9 65 +27 +27 душно 1018.8 1006.2
23 11.08 Ю 1 н/о н/о +21.6 +16.6 73 +25 +25 комфорт 1018.7 1006.0
00 12.08 З 1 н/о н/о +21.5 +15.8 70 +25 +25 комфорт 1018.7 1006.0
01 12.08 В 2 н/о н/о +20.7 +16.3 76 +25 +25 комфорт 1018.8 1006.1
02 12.08 В 2 н/о н/о +20.3 +16.3 78 +24 +24 комфорт 1018.7 1006.0
03 12.08 В 2 15 км 9/0
[Ac cast]
+19.7 +16.2 80 +23 +23 комфорт 1018.7 1006.0
04 12.08 СВ 2 20 км 8/8 1500 м
[Sc]
+19.7 +16.3 81 +23 +23 комфорт 1018.8 1006.1
05 12.08 СВ 2 20 км 3/3 1500 м
[Sc]
+20.7 +16.7 78 +25 +26 комфорт 1019.0 1006.3
06 12.08 СВ 4 20 км 1/1 2000 м
[Sc Ci sp]
+22.0 +15.6 67 +26 +28 душно 1019.2 1006.6 +19.4
07 12.08 СВ 3 20 км 1/0
[Ac lent]
+23.6 +15.9 62 +27 +32 жарко 1019.3 1006.7
08 12.08 В 2 25 км 1/0
[Ci sp]
+25.2 +16.1 57 +29 +39 душно 1019.0 1006.5
09 12.08 В 2 25 км 1/1 1300 м
[Cu hum Ci sp]
+26.9 +15.9 51 +30 +42 душно 1018.9 1006.5
10 12.08 Ю 1 30 км 4/4 1300 м
[Cu med, cong]
+28.2 +17.1 51 +32 +43 душно 1018.6 1006.2
11 12.08 Ю 2 30 км 4/4 1500 м
[Cu med, cong Ci sp]
+29.0 +15.2 43 +32 +41 душно 1018.2 1005.9
12 12.08 ЮВ 3 35 км 4/4 1500 м
[Cu med, cong Ci sp]
+29.9 +15.2 41 +32 +39 жарко 1017.7 1005.4
13 12.08 З 5 40 км 4/4 1500 м
[Cu med, cong Ci sp]
+30.3 +14.4 38 +32 +36 жарко 1017.2 1004.9
14 12.08 З 5 40 км 3/1 2000 м
[Cu med, cong Ci sp]
+30.6 +11.1 30 +31 +34 жарко 1016.9 1004.6
15 12.08 СЗ 3 40 км 1/1 2000 м
[Cu med, cong Ci sp]
+30.6 +11.1 30 +31 +34 жарко 1016.5 1004.2
16 12.08 З 2
{7}
40 км 1/1 2000 м
[Cu med, cong Ci sp]
+30.4 +11.4 31 +31 +32 жарко 1016.1 1003.8
17 12.08 С 2 40 км 1/1 2000 м
[Cu med, cong Ci sp]
+29.4 +11.9 34 +30 +30 жарко 1015.8 1003.5
18 12.08 С 2 40 км 1/1 2000 м
[Sc diur, vesp Ci sp]
+27.5 +11.9 38 +29 +29 жарко 1015.6 1003.2 +30.8
19 12.08 В 1 30 км 4/0
[Ci sp]
+24.5 +12.5 47 +26 +26 жарко 1015.9 1003.4
20 12.08 СВ 2 30 км 4/0
[Ci sp]
+23.6 +12.6 50 +26 +26 жарко 1016.0 1003.5
21 12.08 В 1 30 км 5/0
[Ci sp]
+21.1 +13.0 60 +23 +23 комфорт 1016.1 1003.5
22 12.08 ЮВ 1 30 км 3/0
[Ci sp]
+19.9 +12.4 62 +23 +23 комфорт 1016.1 1003.4
23 12.08 В 1 30 км 1/0
[Ci sp]
+19.0 +12.3 65 +21 +21 комфорт 1015.9 1003.2
00 13.08 В 1 н/о н/о +19.5 +13.0 66 +22 +22 комфорт 1015.6 1002.9
01 13.08 В 1 н/о н/о +18.6 +13.7 73 +20 +20 1015.4 1002.7
02 13.08 В 1 н/о н/о +17.8 +14.5 81 +19 +19 1015.2 1002.4
03 13.08 В 1 20 км ясно +17.9 +14.6 81 +19 +19 1015.0 1002.2
04 13.08 ЮВ 2 15 км 1/0
[Ci sp]
+17.5 +14.8 84 +18 +18 1015.0 1002.2
05 13.08 ЮВ 2 17 км 1/0
[Ci sp]
+19.7 +15.8 78 +22 +24 комфорт 1015.0 1002.3
06 13.08 Ю 3 15 км ясно +22.7 +16.3 67 +27 +30 душно 1014.8 1002.2 +17.5
07 13.08 Ю 4 20 км ясно +25.1 +16.8 60 +29 +34 душно 1014.8 1002.3
08 13.08 Ю 4 20 км ясно +27.1 +16.7 53 +31 +38 душно 1014.5 1002.1
09 13.08 Ю 4 20 км ясно +29.0 +16.2 46 +32 +41 душно 1014.4 1002.1
10 13.08 ЮЗ 4 20 км 4/4 1500 м
[Cu med, cong]
+29.8 +15.1 41 +32 +38 душно 1014.1 1001.8
11 13.08 ЮЗ 4
{7}
20 км 6/6 1500 м
[Cu med, cong]
+30.8 +14.8 38 +33 +37 душно 1013.5 1001.3
12 13.08 Ю 4
{7}
20 км 6/6 1500 м
[Cu med, cong]
+31.3 +14.0 35 +33 +37 жарко 1012.9 1000.7
13 13.08 Ю 4 20 км 6/6 1500 м
[Cu med, cong]
+31.8 +14.5 35 +34 +37 душно 1012.5 1000.3
14 13.08 Ю 4 20 км 5/5 1500 м
[Cu med, cong]
+31.5 +14.2 35 +33 +36 жарко 1011.9 999.7
15 13.08 Ю 4
{7}
20 км 3/3 1500 м
[Cu med, cong]
+31.9 +13.6 33 +33 +35 жарко 1011.3 999.2
16 13.08 Ю 4
{9}
20 км 1/1 1500 м
[Sc diur, vesp]
+31.9 +11.7 29 +32 +33 жарко 1010.7 998.6
17 13.08 ЮЗ 4 20 км 1/1 1500 м
[Sc diur, vesp Ac lent]
+30.9 +13.2 34 +32 +32 жарко 1010.5 998.3
18 13.08 Ю 2 15 км 1/0
[Ci sp]
+28.2 +13.3 40 +30 +30 жарко 1010.6 998.3 +32.4
19 13.08 ЮВ 2 15 км ясно +24.8 +14.3 52 +27 +27 жарко 1010.9 998.5
20 13.08 ЮВ 2 15 км ясно +22.9 +13.9 57 +26 +26 жарко 1011.2 998.7
21 13.08 Ю 1 17 км ясно +21.8 +14.0 61 +25 +25 комфорт 1011.4 998.8
22 13.08 ЮВ 3 20 км ясно +21.5 +14.9 66 +25 +25 комфорт 1011.6 999.0
23 13.08 ЮВ 1 20 км ясно +20.6 +14.7 69 +24 +24 комфорт 1011.9 999.3
00 14.08 ЮВ 1 н/о н/о +19.5 +14.7 74 +22 +22 комфорт 1012.2 999.5
01 14.08 ЮВ 1 н/о н/о +18.8 +14.9 78 +21 +21 комфорт 1012.1 999.4
02 14.08 ЮВ 2 н/о н/о +18.7 +14.8 78 +20 +20 1011.9 999.2
03 14.08 ЮВ 1 25 км 1/0
[Ci sp]
+18.1 +14.6 80 +19 +19 1011.7 999.0
04 14.08 ЮВ 1 25 км 1/0
[Ac lent Ci sp]
+18.4 +14.3 77 +20 +20 1011.6 998.9
05 14.08 ЮВ 2 30 км 4/1 2000 м
[Cu med, cong Ac cast Ci sp]
+21.2 +14.8 67 +24 +25 комфорт 1011.7 999.1
06 14.08 Ю 3 30 км 1/0
[Ac cast Ci sp]
+24.4 +14.2 53 +27 +30 жарко 1011.8 999.3 +18.1
07 14.08 Ю 4 30 км 3/1 1500 м
[Cu med, cong Ci sp]
+26.3 +14.4 48 +29 +33 жарко 1011.9 999.5
08 14.08 ЮЗ 8
{13}
25 км 3/0
[Ac cast Ci sp]
+28.1 +13.2 40 +30 +31 жарко 1012.2 999.9
09 14.08 ЮЗ 6 30 км 1/0
[Ac cast Ci sp]
+28.9 +13.6 39 +31 +36 жарко 1012.0 999.7
10 14.08 ЮЗ 4
{9}
30 км 5/0
[Ac cast Ci sp]
+30.0 +14.9 40 +32 +41 жарко 1011.6 999.4
11 14.08 ЮЗ 4
{8}
30 км 6/1 1500 м
[Cu med, cong Ac cast Ci sp]
+30.3 +14.8 39 +32 +39 жарко 1011.3 999.1
12 14.08 ЮЗ 5
{9}
30 км 8/1 1500 м
[Cu med, cong Ac cast Ci sp]
+30.6 +14.3 37 +32 +36 жарко 1010.8 998.6
13 14.08 Ю 5
{8}
30 км 4/1 2000 м
[Cu med, cong Ac cast Ci sp]
+32.0 +13.3 32 +33 +37 жарко 1010.2 998.1
14 14.08 Ю 4
{8}
30 км 3/1 2000 м
[Cu med, cong Ac cast Ci sp]
+31.8 +13.5 33 +33 +37 жарко 1009.9 997.8
15 14.08 Ю 4 30 км 1/1 2000 м
[Cu med, cong Ci sp]
+32.7 +13.4 31 +34 +36 очень
жарко
1009.3 997.2
16 14.08 Ю 3
{8}
30 км 1/1 2000 м
[Cu med, cong Ac cast Ci sp]
+32.4 +13.6 32 +34 +35 очень
жарко
1009.0 996.9
17 14.08 ЮВ 3 30 км 4/1 2000 м
[Cu med, cong Ac cast Ci sp]
+30.6 +13.4 35 +32 +32 жарко 1009.3 997.1
18 14.08 ЮВ 2 30 км 4/0
[Ac cast Ci sp]
+28.3 +13.8 41 +30 +30 жарко 1009.5 997.2 +32.9
19 14.08 ЮВ 1 30 км зарница 6/1 700 м
[Cu med, cong Ac cast Ci sp]
+25.9 +14.1 48 +28 +28 жарко 1010.6 998.2
20 14.08 З 4
{11}
30 км зарница 8/3 800 м
[Cu med, cong Ac cast Ci sp]
+24.2 +14.9 56 +27 +27 жарко 1011.8 999.3
21 14.08 С 3 30 км 9/0
[Ac cast Cs]
+22.6 +15.9 66 +27 +27 душно 1011.3 998.8
22 14.08 ЮЗ 2 30 км 9/0
[Ac As Cs]
+21.6 +15.9 70 +25 +25 комфорт 1012.1 999.5
23 14.08 С 1 30 км 6/0
[Ac As Ci sp]
+21.3 +16.1 72 +25 +25 комфорт 1012.2 999.6
00 15.08 ЮВ 2 н/о н/о +19.6 +15.5 77 +22 +22 комфорт 1012.6 999.9
01 15.08 ЮЗ 3 н/о н/о +18.4 +15.6 84 +19 +19 1012.8 1000.1
02 15.08 ЮЗ 3 н/о н/о +18.7 +16.1 85 +20 +20 1013.1 1000.4
03 15.08 С 1 20 км 5/0
[Ac cast Ci sp]
+18.7 +16.1 85 +21 +21 комфорт 1012.8 1000.1
04 15.08 С 1 20 км 5/0
[Ac cast Ci sp]
+18.3 +15.9 86 +20 +20 1012.5 999.8
05 15.08 З 1 25 км 6/0
[Ac cast Ci sp]
+19.1 +16.5 85 +22 +23 комфорт 1013.3 1000.6
06 15.08 С 1 25 км 9/0
[Ac cast Ci sp]
+20.9 +16.7 77 +26 +28 душно 1013.8 1001.2 +17.4
07 15.08 ЮВ 2 30 км 8/0
[Ac cast Ci sp]
+23.0 +16.8 68 +28 +32 душно 1014.0 1001.5
08 15.08 штиль 0 30 км 9/1 900 м
[Cu med, cong Ac cast Ci sp]
+25.0 +17.2 62 +29 +36 душно 1014.4 1001.9
09 15.08 ЮЗ 2 20 км слабый ливневой дождь 9/4 1200 м
[Cu med, cong Ac cast]
+24.3 +17.5 66 +28 +32 душно 1014.8 1002.3
10 15.08 З 2 20 км слабый ливневой дождь 9/4 900 м
[Cu med, cong Ac cast]
+23.0 +17.7 72 +28 +32 душно 1015.0 1002.4
11 15.08 З 1 25 км в посл. час ливневой дождь 9/3 900 м
[Cu med, cong Ac cast]
+23.5 +16.5 65 +27 +32 душно 1014.9 1002.4
12 15.08 Ю 1 25 км {ливн. осадки} 6/1 1000 м
[Cu med, cong Ac cast Ci sp]
+27.1 +15.5 49 +30 +40 душно 1014.4 1002.0
13 15.08 ЮЗ 2 30 км 5/1 1500 м
[Cu med, cong Ac cast Ci sp]
+28.1 +15.4 46 +31 +38 душно 1014.2 1001.9
14 15.08 З 2 30 км 8/1 1500 м
[Cu med, cong Ac cast Cs]
+28.4 +14.6 43 +31 +35 душно 1013.7 1001.4
15 15.08 С 1 30 км 9/1 1500 м
[Cu med, cong Ac cast Cs]
+28.1 +14.4 43 +30 +33 жарко 1013.8 1001.5
16 15.08 С 4 10 км ливневой дождь 9/5 1200 м
[Cb cap Ac cast]
+26.7 +16.6 54 +30 +31 душно 1014.0 1001.6
17 15.08 С 5 12 км слабый ливневой дождь {гроза} 9/5 1000 м
[Cb cap Ac cast]
+22.4 +18.2 77 +28 +28 душно 1015.0 1002.4
18 15.08 СВ 4 25 км в посл. час ливневой дождь {гроза} 9/1 1000 м
[Sc diur, vesp Ac cast]
+21.1 +17.3 79 +25 +25 комфорт 1015.1 1002.5 0.1
19 15.08 СВ 3 20 км 9/0
[Ac cast]
+21.0 +17.8 82 +26 +26 душно 1015.7 1003.1
20 15.08 СВ 2 20 км 9/0
[Ac cast]
+20.9 +17.9 83 +26 +26 душно 1016.0 1003.3
21 15.08 С 2 20 км 9/0
[Ac cast]
+20.7 +17.3 81 +25 +25 комфорт 1016.0 1003.3
22 15.08 СВ 2 20 км 9/0
[Ac As]
+20.4 +16.8 80 +24 +24 комфорт 1016.4 1003.7
23 15.08 С 1 30 км 9/0
[Ac As]
+20.3 +16.9 81 +24 +24 комфорт 1016.1 1003.4
00 16.08 С 1 н/о н/о +20.0 +16.2 79 +24 +24 комфорт 1016.1 1003.4
01 16.08 С 1 н/о н/о +19.7 +16.2 80 +23 +23 комфорт 1015.9 1003.2
02 16.08 С 2 н/о н/о +19.9 +15.5 76 +23 +23 комфорт 1015.6 1002.9
03 16.08 15 км 9/0
[Ac As Ci sp]
+19.2 +15.3 78 1015.7 1003.0
04 16.08 С 2 17 км 9/0
[Ac As Ci sp]
+18.7 +15.4 81 +20 +20 1015.8 1003.1
05 16.08 С 4
{7}
15 км 9/0
[Ac As Ci sp]
+19.2 +15.7 80 +21 +21 комфорт 1016.1 1003.4
06 16.08 СВ 4 15 км 9/4 1500 м
[Sc Ac As]
+20.3 +15.9 76 +23 +24 комфорт 1016.3 1003.6 +18.7 0
07 16.08 СВ 4
{8}
15 км 9/4 1500 м
[Sc Ac As]
+21.3 +16.3 73 +25 +26 комфорт 1016.1 1003.5
08 16.08 СВ 4
{7}
17 км 8/1 1500 м
[Sc Ac As Ci sp]
+23.6 +17.1 67 +27 +31 жарко 1016.1 1003.6
09 16.08 СВ 5 20 км 9/4 900 м
[Cu Sc Ac As]
+24.2 +16.7 63 +28 +29 душно 1016.4 1003.9
10 16.08 СВ 4 20 км 9/1 1000 м
[Cu med, cong Ac As Ci sp]
+25.7 +17.1 59 +30 +35 душно 1016.2 1003.7
11 16.08 СВ 3
{7}
25 км 3/1 1000 м
[Cu med, cong Ac cast]
+26.8 +17.3 56 +31 +40 душно 1015.8 1003.4
12 16.08 В 3 25 км 5/5 1380 м
[Cu med, cong Ac cast Ci sp]
+28.0 +15.6 47 +31 +37 душно 1015.3 1002.9
13 16.08 СВ 3 25 км 8/8 1380 м
[Cu med, cong Ac cast Ci sp]
+27.2 +16.2 51 +31 +32 душно 1015.1 1002.7
14 16.08 СВ 4
{7}
25 км 8/8 1380 м
[Cu med, cong Ac cast Ci sp]
+27.8 +16.4 50 +31 +32 душно 1014.7 1002.3
15 16.08 СВ 5 25 км 8/3 1380 м
[Cu med, cong Ac cast Ci sp]
+27.4 +16.1 50 +31 +32 душно 1014.5 1002.1
16 16.08 СВ 4
{7}
25 км 5/3 1500 м
[Cu med, cong Ac cast Ci sp]
+27.5 +15.8 49 +31 +31 душно 1014.4 1002.0
17 16.08 СВ 4 25 км 4/1 1500 м
[Sc diur, vesp Ac cast Ci sp]
+26.7 +16.0 52 +30 +30 душно 1014.6 1002.2
18 16.08 В 2 25 км 4/1 1500 м
[Sc diur, vesp Ac cast Ci sp]
+24.5 +17.0 63 +28 +28 душно 1015.0 1002.5 +28.8
19 16.08 В 2 20 км 3/0
[Ac cast Ci sp]
+22.7 +17.2 71 +28 +28 душно 1015.6 1003.0
20 16.08 С 1 20 км 3/0
[Ci sp]
+22.2 +17.1 73 +27 +27 душно 1015.4 1002.8
21 16.08 С 1 20 км ясно +21.3 +17.1 77 +25 +25 комфорт 1015.3 1002.7
22 16.08 СВ 1 20 км ясно +20.9 +16.7 77 +26 +26 душно 1015.5 1002.9
23 16.08 СВ 2 н/о н/о +20.1 +16.1 78 +23 +23 комфорт 1015.5 1002.8
00 17.08 СВ 3 н/о н/о +19.3 +16.0 81 +21 +21 комфорт 1015.6 1002.9
01 17.08 СВ 2 н/о н/о +18.3 +15.6 84 +19 +19 1015.7 1002.9
02 17.08 СВ 3 н/о н/о +18.2 +15.6 85 +19 +19 1015.6 1002.8
03 17.08 СВ 3 25 км 1/0
[Ci sp]
+16.8 +14.8 88 +17 +17 1015.6 1002.8
04 17.08 СВ 2 20 км 1/0
[Ci sp]
+16.6 +14.4 87 +17 +17 1015.8 1003.0
05 17.08 СВ 3 25 км 1/0
[Ci sp]
+17.8 +15.2 85 +18 +19 1016.0 1003.2
06 17.08 СВ 2 25 км 1/0
[Ci sp]
+20.0 +15.8 77 +23 +27 комфорт 1016.1 1003.4 +16.5
07 17.08 В 2 25 км 1/0
[Ci sp]
+22.1 +15.9 68 +26 +33 душно 1016.1 1003.5
08 17.08 В 2 30 км ясно +24.0 +16.0 61 +27 +37 жарко 1016.2 1003.7
09 17.08 С 1 30 км ясно +25.9 +15.6 53 +29 +44 душно 1016.0 1003.6
10 17.08 В 2 30 км 1/1 1380 м
[Cu hum]
+27.4 +15.1 47 +30 +43 жарко 1015.8 1003.4
11 17.08 З 2 30 км 1/1 1500 м
[Cu hum]
+28.6 +14.4 42 +31 +44 жарко 1015.4 1003.1
12 17.08 СЗ 2 30 км 3/3 1500 м
[Cu med, cong]
+29.0 +14.8 42 +31 +41 жарко 1015.1 1002.8
13 17.08 СЗ 2 30 км 3/3 1500 м
[Cu med, cong]
+29.3 +13.9 39 +31 +39 жарко 1014.7 1002.4
14 17.08 ЮВ 1 30 км 3/3 1500 м
[Cu med, cong]
+29.1 +13.3 38 +31 +37 жарко 1014.4 1002.1
15 17.08 СЗ 2 30 км 1/1 2000 м
[Cu med, cong]
+30.4 +12.8 34 +31 +35 жарко 1013.9 1001.7
16 17.08 СЗ 2 30 км 1/1 2000 м
[Cu hum]
+30.0 +12.9 35 +31 +32 жарко 1013.6 1001.4
17 17.08 С 2 30 км ясно +29.3 +13.1 37 +31 +31 жарко 1013.7 1001.4
18 17.08 СЗ 1 30 км ясно +27.8 +13.0 40 +29 +29 жарко 1014.2 1001.9 +30.9
19 17.08 С 1 30 км ясно +24.8 +13.7 50 +27 +27 жарко 1015.1 1002.6
20 17.08 СВ 1 30 км ясно +23.0 +14.6 59 +27 +27 душно 1015.5 1002.9
21 17.08 В 1 30 км ясно +20.8 +14.7 68 +25 +25 комфорт 1015.7 1003.0
22 17.08 СВ 1 25 км ясно +20.2 +15.2 73 +24 +24 комфорт 1015.7 1003.0
23 17.08 СВ 1 25 км ясно +19.5 +15.4 77 +22 +22 комфорт 1015.9 1003.2
00 18.08 СВ 1 н/о н/о +18.7 +15.0 79 +21 +21 комфорт 1016.1 1003.3
01 18.08 СВ 1 н/о н/о +18.2 +14.7 80 +20 +20 1016.0 1003.2
02 18.08 штиль 0 н/о н/о +17.1 +13.8 81 +17 +17 1016.1 1003.3
03 18.08 СВ 1 20 км ясно +16.3 +13.8 85 +17 +17 1016.5 1003.6
04 18.08 СВ 1 15 км 1/0
[Ac lent]
+15.8 +13.3 85 +16 +17 1016.9 1004.0
05 18.08 ЮВ 1 15 км 1/0
[Ac cast]
+17.1 +14.0 82 +18 +19 1017.4 1004.6

 

Местоположение метеостанции Debrecen (Венгрия): широта 47.48 долгота 21.60 высота над уровнем моря 109 м.

В архиве по умолчанию представлена погода в Debrecen за последнюю неделю. Архивные данные за месяц целиком и за предыдущие месяцы, начиная с января 2011 года, Вы можете получить, выбрав интересующий диапазон дат из раскрывающегося списка и нажав кнопку "Ввод!".


*Определитесь, кто Вы:
робот инопланетянин человек

Внимание! Время в таблицах - всемирное. Для получения местного времени необходимо прибавить поправку, которая в Debrecen равна 1 ч.

Смотрите также архив погоды в соседних городах и на ближайших метеорологических станциях:

Погода в Sacuieni (Румыния) (40 км)
Погода в Oradea (Румыния) (55 км)
Погода в Nyiregyhaza (Венгрия) (58 км)
Погода в Poroszlo (Венгрия) (75 км)
Погода в Holod (Румыния) (87 км)
Погода в Supuru De Jos (Румыния) (89 км)
Погода в Miskolc (Венгрия) (93 км)
Погода в Borod (Румыния) (94 км)
Погода в Bekescsaba (Венгрия) (95 км)
Погода в Satu Mare (Румыния) (100 км)

Пояснения к столбцам:

Ветер - указаны скорость ветра в м/с - средняя за 10 мин, порывы в срок и между сроками (в фигурных скобках) и направление, откуда дует ветер: С - северный, СВ - северо-восточный, В - восточный, ЮВ - юго-восточный, Ю - южный, ЮЗ - юго-западный, З - западный, СЗ - северо-западный.
Видимость - горизонтальная дальность видимости в метрах или километрах. При видимости от 1 до 10 км при отсутствии осадков обычно наблюдается дымка, при ухудшении видимости до 1 км и менее - туман. В сухую погоду видимость может ухудшаться дымом, пылью или мглою.
Явления - указаны атмосферные явления, наблюдавшиеся в срок или в последний час перед сроком; фигурными скобками обозначены явления, наблюдавшиеся между сроками (за 1-3 часа до срока); квадратными скобками обозначены град или гололедные отложения с указанием их диаметра в мм.
Облачность - указаны через наклонную черту общая и нижняя облачность в баллах и высота нижней границы облаков в метрах; квадратными скобками обозначены формы облаков: Ci - перистые, Cs - перисто-слоистые, Cc - перисто-кучевые, Ac - высококучевые, As - высокослоистые, Sc - слоисто-кучевые, Ns - слоисто-дождевые, Cu - кучевые, Cb - кучево-дождевые. Подробнее классификацию облаков см. в Атласе облаков (PDF).
T - Температура воздуха - температура, измеренная на высоте 2 м над землей.
Td - Температура точки росы - температура, при понижении до которой содержащийся в воздухе водяной пар достигнет насыщения.
f - Относительная влажность воздуха - влажноcть воздуха, измеренная на высоте 2 м над землей.
Te - Эффективная температура - температура, которую ощущает одетый по сезону человек в тени. Характеристика душности погоды. При расчете учитывается влияние влажности воздуха и скорости ветра на теплоощущения человека.
Tes - Эффективная температура на солнце - температура, которую ощущает человек, с поправкой на солнечный нагрев. Характеристика знойности погоды. Зависит от высоты солнца над горизонтом, облачности и скорости ветра. Ночью, в пасмурную погоду, а также при ветре 12 м/с и более поправка равна нулю.
P - Атмосферное давление - приведенное к уровню моря атмосферное давление.
Po - Атмосферное давление - измеренное на уровне метеостанции атмосферное давление.
Tmin - Минимальная температура - минимум температуры воздуха на высоте 2 м над землей.
Tmax - Максимальная температура - максимум температуры воздуха на высоте 2 м над землей.
R - Количество осадков - Количество выпавших осадков за период времени, мм. При наведении курсора мыши на число - период времени, за который выпало указанное количество осадков.
R24 - Количество осадков - Количество выпавших осадков за 24 часа, мм.
S - Снежный покров - Высота снежного покрова, см. При наведении курсора мыши на число - состояние снежного покрова и степень покрытия местности в баллах.